www.pogodaiklimat.ru

Погода и климат >> Архив погоды >> Австралия >> Rabbit Flat


ПОГОДА в Rabbit Flat

  • Прогноз погоды в Rabbit Flat
  • Монитор погоды в Rabbit Flat
  • Климат города

АРХИВ ПОГОДЫ в Rabbit Flat

Время (UTC), дата Ветер
(напр.,м/с)
 
Видим.   Явления Облачность Т
(С)
Тd
(С)
f
(%)
Тe
(С)
Тes
(С)
Комфортность P
(гПа)
Po
(гПа)
Тmin
(С)
Tmax
(С)
R
(мм)
R24
(мм)
S
(см)
23 10.11 В 6 н/о н/о +29.3 -6.8 9 +26 +26 жарко 1011.2 973.6
00 11.11 В 6 н/о н/о +30.5 -7.4 8 +27 +27 жарко 1011.2 973.7
02 11.11 В 5 н/о н/о +35.2 -5.7 7 +31 +31 жарко 1009.6 972.1 +18.3
03 11.11 В 4 н/о н/о +35.9 -5.2 7 +32 +32 жарко 1008.9 971.5
05 11.11 В 2 н/о н/о +37.3 -6.3 6 +33 +33 жарко 1006.3 968.9
06 11.11 В 3 н/о н/о +37.6 -6.0 6 +33 +33 жарко 1005.8 968.6
08 11.11 ЮВ 2 н/о н/о +37.4 -6.2 6 +33 +33 жарко 1006.0 968.6
09 11.11 С 2 н/о н/о +36.4 -6.9 6 +32 +32 жарко 1006.0 968.8
11 11.11 СВ 3 н/о н/о +28.5 -2.6 13 +26 +26 жарко 1008.2 970.7
12 11.11 С 3 н/о н/о +27.5 -2.3 14 +25 +25 комфорт 1008.2 970.9
14 11.11 В 2 н/о н/о +23.4 +1.1 23 +22 +22 комфорт 1008.2 970.7 +39.0
15 11.11 В 1 н/о н/о +22.6 +1.0 24 +22 +22 комфорт 1007.6 970.3
17 11.11 С 3 н/о н/о +22.4 +0.9 24 +22 +22 комфорт 1006.7 969.3
18 11.11 С 3 н/о н/о +23.1 +0.2 22 +22 +22 комфорт 1006.5 969.3
20 11.11 З 2 н/о н/о +19.2 +1.2 30 +20 +20 1007.6 970.2
21 11.11 З 2 н/о н/о +19.0 +2.8 34 +20 +20 1008.0 970.7
23 11.11 СВ 6 н/о н/о +33.9 -4.9 8 +30 +30 жарко 1008.8 971.3
00 12.11 СВ 7 н/о н/о +34.9 -6.0 7 +31 +31 жарко 1008.5 971.2
02 12.11 С 5 н/о н/о +39.0 -10.3 4 +34 +34 очень
жарко
1007.2 969.8 +18.6
03 12.11 С 4 н/о н/о +39.4 -7.2 5 +35 +35 очень
жарко
1006.7 969.5
05 12.11 З 3 н/о н/о +41.6 -5.6 5 +37 +37 очень
жарко
1004.1 966.8
06 12.11 С 4 н/о н/о +40.8 -6.2 5 +36 +36 очень
жарко
1003.5 966.4
08 12.11 С 2 н/о н/о +40.8 -3.8 6 +37 +37 очень
жарко
1003.0 965.7
09 12.11 В 3 н/о н/о +39.4 -4.8 6 +35 +35 очень
жарко
1002.9 965.8
11 12.11 С 3 н/о н/о +30.8 -1.9 12 +28 +28 жарко 1004.8 967.5
12 12.11 С 3 н/о н/о +28.6 -1.5 14 +26 +26 жарко 1005.0 967.8
14 12.11 СВ 2 н/о н/о +24.9 +1.7 22 +24 +24 комфорт 1005.3 967.9 +42.1
15 12.11 С 1 н/о н/о +24.9 +2.4 23 +24 +24 комфорт 1004.9 967.7
17 12.11 Ю 8 н/о н/о +28.0 +10.7 34 +29 +29 жарко 1006.8 969.4
18 12.11 Ю 8 н/о н/о +27.8 +10.9 35 +29 +29 жарко 1006.6 969.4
20 12.11 ЮВ 7 н/о н/о +26.8 +12.8 42 +28 +28 жарко 1007.4 970.0
21 12.11 ЮВ 5 н/о н/о +26.6 +13.3 44 +29 +29 жарко 1007.7 970.4
23 12.11 Ю 3 н/о н/о +27.6 +14.6 45 +30 +30 жарко 1008.9 971.4
00 13.11 ЮВ 5 н/о н/о +30.0 +12.4 34 +31 +31 жарко 1008.6 971.3
02 13.11 В 5 н/о н/о +37.0 +4.0 13 +34 +34 очень
жарко
1007.2 969.8 +24.9
03 13.11 В 5 н/о н/о +37.4 +4.4 13 +34 +34 очень
жарко
1006.6 969.4
05 13.11 В 2 н/о н/о +39.0 +4.4 12 +36 +36 очень
жарко
1004.5 967.2
06 13.11 З 1 н/о н/о +39.1 +4.5 12 +36 +36 очень
жарко
1004.1 966.9
08 13.11 З 6 н/о н/о +35.7 +9.3 20 +34 +34 очень
жарко
1004.6 967.3
09 13.11 СЗ 6 н/о н/о +35.3 +9.7 21 +34 +34 очень
жарко
1004.4 967.2
11 13.11 Ю 5 н/о н/о +31.5 +10.8 28 +31 +31 жарко 1006.8 969.4
12 13.11 С 2 н/о н/о +31.6 +9.8 26 +31 +31 жарко 1006.6 969.4
14 13.11 ЮЗ 2 н/о н/о +27.7 +10.9 35 +28 +28 жарко 1006.6 969.2 +40.9
15 13.11 З 3 н/о н/о +27.3 +11.7 38 +28 +28 жарко 1006.1 968.9
17 13.11 Ю 4 н/о н/о +28.6 +11.2 34 +29 +29 жарко 1005.9 968.5
18 13.11 Ю 4 н/о н/о +28.0 +11.1 35 +29 +29 жарко 1006.1 968.9
20 13.11 Ю 3 н/о н/о +26.7 +9.1 33 +27 +27 жарко 1007.3 969.9
21 13.11 Ю 3 н/о н/о +25.7 +9.5 36 +26 +26 жарко 1007.6 970.3
23 13.11 ЮВ 6 н/о н/о +34.8 +9.3 21 +33 +33 жарко 1009.0 971.5
00 14.11 ЮВ 7 н/о н/о +35.6 +6.8 17 +33 +33 жарко 1009.0 971.6
02 14.11 Ю 7 н/о н/о +39.1 +4.5 12 +36 +36 очень
жарко
1008.4 970.9 +25.7
03 14.11 Ю 6 н/о н/о +39.8 +5.1 12 +37 +37 очень
жарко
1007.8 970.5
05 14.11 СЗ 3 н/о н/о +41.3 +4.9 11 +38 +38 очень
жарко
1005.8 968.4
06 14.11 ЮЗ 4 н/о н/о +41.6 +3.8 10 +38 +38 очень
жарко
1005.3 968.1
08 14.11 ЮЗ 8 н/о н/о +40.0 +2.6 10 +37 +37 очень
жарко
1004.6 967.3
09 14.11 ЮЗ 6 н/о н/о +39.2 +3.4 11 +36 +36 очень
жарко
1004.7 967.5
11 14.11 ЮЗ 5 н/о н/о +34.3 +0.8 12 +31 +31 жарко 1007.3 969.9
12 14.11 ЮЗ 6 н/о н/о +34.0 +0.6 12 +31 +31 жарко 1007.8 970.5
14 14.11 Ю 5 н/о н/о +31.3 +0.6 14 +28 +28 жарко 1008.4 970.9 +42.9
15 14.11 Ю 4 н/о н/о +30.1 +0.6 15 +27 +27 жарко 1007.9 970.6
17 14.11 ЮЗ 5 н/о н/о +28.2 +1.7 18 +26 +26 жарко 1007.0 969.6
18 14.11 В 5 н/о н/о +26.5 +9.4 34 +25 +25 комфорт 1008.1 970.8
20 14.11 ЮВ 3 н/о н/о +21.9 +4.0 31 +22 +22 комфорт 1009.2 971.7
21 14.11 СВ 6 н/о н/о +25.6 +18.5 65 +30 +30 душно 1009.4 972.0
23 14.11 С 8 н/о н/о +29.9 +19.0 52 +35 +35 очень
душно
1011.1 973.5
00 15.11 С 7 н/о н/о +31.4 +19.1 48 +37 +37 очень
душно
1011.4 973.9
02 15.11 СВ 7 н/о н/о +37.0 +15.5 28 +39 +39 очень
душно
1010.2 972.7 +21.7
03 15.11 С 6 н/о н/о +37.9 +15.1 26 +39 +39 очень
душно
1009.5 972.1
05 15.11 СВ 5 н/о н/о +39.0 +11.2 19 +38 +38 очень
жарко
1007.0 969.6
06 15.11 СВ 5 н/о н/о +39.3 +10.6 18 +38 +38 очень
жарко
1006.5 969.3
08 15.11 СВ 5 н/о н/о +38.6 +10.9 19 +38 +38 очень
жарко
1005.9 968.5
09 15.11 СВ 6 н/о н/о +37.7 +10.9 20 +37 +37 очень
жарко
1005.8 968.6
11 15.11 СВ 4 н/о н/о +35.0 +12.0 25 +35 +35 очень
жарко
1008.0 970.5
12 15.11 СВ 4 н/о н/о +34.7 +12.4 26 +35 +35 очень
жарко
1008.0 970.7
14 15.11 СВ 4 н/о н/о +32.9 +13.5 31 +34 +34 очень
жарко
1008.6 971.1 +40.8
15 15.11 СВ 4 н/о н/о +32.5 +13.2 31 +33 +33 жарко 1008.3 971.0
17 15.11 СВ 3 н/о н/о +31.2 +13.5 34 +32 +32 жарко 1008.0 970.5
18 15.11 С 4 н/о н/о +26.5 +17.6 58 +31 +31 душно 1008.0 970.7
20 15.11 С 4 н/о {туман} н/о +29.2 +16.0 45 +32 +32 душно 1009.2 971.7
21 15.11 В 3 н/о н/о +27.8 +17.9 55 +32 +32 душно 1009.6 972.2
23 15.11 ЮВ 3 н/о {осадки} н/о +31.4 +16.9 42 +35 +35 очень
душно
1011.5 973.9 3
00 16.11 В 6 н/о н/о +32.6 +16.4 38 +36 +36 очень
душно
1011.3 973.8
02 16.11 ЮВ 7 н/о н/о +34.8 +15.2 31 +37 +37 очень
душно
1009.7 972.2 +25.5
03 16.11 В 6 н/о н/о +36.5 +15.0 28 +38 +38 очень
душно
1008.9 971.5
05 16.11 СВ 6 н/о н/о +33.0 +13.6 31 +34 +34 очень
жарко
1006.9 969.5
06 16.11 В 9 н/о н/о +29.8 +17.3 47 +34 +34 очень
душно
1006.8 969.6
08 16.11 З 4 н/о н/о +29.9 +16.3 44 +33 +33 душно 1009.2 971.7
09 16.11 З 5 н/о н/о +28.4 +18.2 54 +33 +33 очень
душно
1009.5 972.1
11 16.11 ЮВ 3 н/о н/о +26.2 +20.1 69 +32 +32 очень
душно
1009.5 972.0
12 16.11 С 2 н/о н/о +26.1 +20.2 70 +32 +32 очень
душно
1009.8 972.4
14 16.11 СВ 1 н/о н/о +26.7 +18.3 60 +31 +31 душно 1010.3 972.8 +38.9
15 16.11 Ю 3 н/о н/о +27.5 +17.1 53 +31 +31 душно 1009.8 972.4
17 16.11 В 4 н/о н/о +28.6 +11.2 34 +29 +29 жарко 1008.9 971.4
18 16.11 В 3 н/о н/о +27.5 +12.7 40 +29 +29 жарко 1008.9 971.5
20 16.11 ЮВ 3 н/о н/о +24.0 +11.7 46 +26 +26 жарко 1009.7 972.2
21 16.11 ЮВ 2 н/о н/о +23.6 +11.3 46 +25 +25 комфорт 1010.2 972.7
23 16.11 В 5 н/о н/о +30.1 +4.7 20 +28 +28 жарко 1011.8 974.2
00 17.11 В 5 н/о н/о +30.8 +3.8 18 +29 +29 жарко 1011.9 974.4
02 17.11 В 6 н/о н/о +35.2 +2.6 13 +32 +32 жарко 1010.3 972.8 +23.6
03 17.11 СВ 5 н/о н/о +35.4 +4.8 15 +33 +33 жарко 1009.6 972.2
05 17.11 ЮВ 3 н/о н/о +36.8 +5.9 15 +34 +34 очень
жарко
1007.0 969.6
06 17.11 СВ 2 н/о н/о +36.6 +7.6 17 +35 +35 очень
жарко
1006.5 969.3
08 17.11 В 4 н/о н/о +35.8 +8.6 19 +34 +34 очень
жарко
1006.1 968.7
09 17.11 ЮВ 5 н/о н/о +35.2 +6.5 17 +33 +33 жарко 1006.0 968.8
11 17.11 ЮВ 7 н/о н/о +31.4 +5.0 19 +29 +29 жарко 1008.7 971.2
12 17.11 В 6 н/о н/о +30.6 +4.4 19 +29 +29 жарко 1009.5 972.1
14 17.11 С 3 н/о н/о +27.5 +11.9 38 +29 +29 жарко 1010.5 972.9 +38.3
15 17.11 С 5 н/о н/о +27.4 +16.4 51 +31 +31 душно 1009.8 972.4
17 17.11 СВ 8 н/о н/о +24.0 +19.5 76 +29 +29 душно 1009.4 971.9
18 17.11 С 5 н/о н/о +23.7 +19.8 79 +29 +29 душно 1009.9 972.5
20 17.11 СВ 3 н/о н/о +23.8 +19.1 75 +29 +29 душно 1009.9 972.4

 

Местоположение метеостанции Rabbit Flat (Северная территория, Австралия): широта -20.18 долгота 130.02 высота над уровнем моря 339 м.

В архиве по умолчанию представлена погода в Rabbit Flat за последнюю неделю. Архивные данные за месяц целиком и за предыдущие месяцы, начиная с января 2011 года, Вы можете получить, выбрав интересующий диапазон дат из раскрывающегося списка и нажав кнопку "Ввод!".


*Определитесь, кто Вы:
робот инопланетянин человек

Внимание! Время в таблицах - всемирное. Для получения местного времени необходимо прибавить поправку, которая в Rabbit Flat равна 9.5 ч.

Смотрите также архив погоды в соседних городах и на ближайших метеорологических станциях:

Погода в Lajamanu (Северная территория, Австралия) (216 км)
Погода в Halls Creek Airport (Западная Австралия, Австралия) (329 км)
Погода в Wulungurru (Северная территория, Австралия) (350 км)
Погода в Argyle Aero (Западная Австралия, Австралия) (428 км)
Погода в Victoria River Downs (Северная территория, Австралия) (433 км)
Погода в Tennant Creek Airport (Северная территория, Австралия) (439 км)
Погода в Territory Grape Farm (Северная территория, Австралия) (451 км)
Погода в Kununurra (Западная Австралия, Австралия) (509 км)
Погода в Fitzroy Crossing Aero (Западная Австралия, Австралия) (519 км)
Погода в Delamere Weapons Range (Северная территория, Австралия) (532 км)

Пояснения к столбцам:

Ветер - указаны скорость ветра в м/с - средняя за 10 мин, порывы в срок и между сроками (в фигурных скобках) и направление, откуда дует ветер: С - северный, СВ - северо-восточный, В - восточный, ЮВ - юго-восточный, Ю - южный, ЮЗ - юго-западный, З - западный, СЗ - северо-западный.
Видимость - горизонтальная дальность видимости в метрах или километрах. При видимости от 1 до 10 км при отсутствии осадков обычно наблюдается дымка, при ухудшении видимости до 1 км и менее - туман. В сухую погоду видимость может ухудшаться дымом, пылью или мглою.
Явления - указаны атмосферные явления, наблюдавшиеся в срок или в последний час перед сроком; фигурными скобками обозначены явления, наблюдавшиеся между сроками (за 1-3 часа до срока); квадратными скобками обозначены град или гололедные отложения с указанием их диаметра в мм.
Облачность - указаны через наклонную черту общая и нижняя облачность в баллах и высота нижней границы облаков в метрах; квадратными скобками обозначены формы облаков: Ci - перистые, Cs - перисто-слоистые, Cc - перисто-кучевые, Ac - высококучевые, As - высокослоистые, Sc - слоисто-кучевые, Ns - слоисто-дождевые, Cu - кучевые, Cb - кучево-дождевые. Подробнее классификацию облаков см. в Атласе облаков (PDF).
T - Температура воздуха - температура, измеренная на высоте 2 м над землей.
Td - Температура точки росы - температура, при понижении до которой содержащийся в воздухе водяной пар достигнет насыщения.
f - Относительная влажность воздуха - влажноcть воздуха, измеренная на высоте 2 м над землей.
Te - Эффективная температура - температура, которую ощущает одетый по сезону человек в тени. Характеристика душности погоды. При расчете учитывается влияние влажности воздуха и скорости ветра на теплоощущения человека.
Tes - Эффективная температура на солнце - температура, которую ощущает человек, с поправкой на солнечный нагрев. Характеристика знойности погоды. Зависит от высоты солнца над горизонтом, облачности и скорости ветра. Ночью, в пасмурную погоду, а также при ветре 12 м/с и более поправка равна нулю.
P - Атмосферное давление - приведенное к уровню моря атмосферное давление.
Po - Атмосферное давление - измеренное на уровне метеостанции атмосферное давление.
Tmin - Минимальная температура - минимум температуры воздуха на высоте 2 м над землей.
Tmax - Максимальная температура - максимум температуры воздуха на высоте 2 м над землей.
R - Количество осадков - Количество выпавших осадков за период времени, мм. При наведении курсора мыши на число - период времени, за который выпало указанное количество осадков.
R24 - Количество осадков - Количество выпавших осадков за 24 часа, мм.
S - Снежный покров - Высота снежного покрова, см. При наведении курсора мыши на число - состояние снежного покрова и степень покрытия местности в баллах.